User: anonymous   Login
Location: Cincinnati Observatory Center
(39.1389°N, 84.4225°W)
Time: 23:18:24
(UTC-04:00)
Language:

COSMOS 2428 - Orbit

View from above orbital plane
View from above orbital plane
View from above satellite
View from above satellite

Ground track
Ground track

The orbit data is extracted from the following two-line orbital elements,

1 31792U 07029A   16272.41983430 -.00000373  00000-0 -17649-3 0  9995
2 31792  70.9238 241.6604 0010990 308.6282  51.3854 14.12307397477117
Epoch (UTC): 28 September 2016 10:04:33
Eccentricity: 0.0010990
inclination: 70.9238°
perigee height: 843 km
apogee height: 859 km
right ascension of ascending node: 241.6604°
argument of perigee: 308.6282°
revolutions per day: 14.12307397
mean anomaly at epoch: 51.3854°
orbit number at epoch: 47711

The dashed part of the orbit path shows where the satellite is in the earth's shadow,  

DLR